Hourly Data Report for September 18, 2017

All times are specified in Local Standard Time (LST). Add 1 hour to adjust for Daylight Saving Time where and when it is observed.

SUMMERSIDE
PRINCE EDWARD ISLAND

46°26'28.000" N
63°50'17.000" W
12.20 m
8300596
71702
WSD

Download Data

Hourly Data (September 2017)
Hourly Data Report for September 18, 2017
Temp Definition
°C
Dew Point Temp Definition
°C
Rel Hum Definition
%
Wind Dir Definition
10's deg

Wind Spd Definition
km/h
Visibility Definition
km
Stn Press Definition
kPa
Hmdx Definition


Wind Chill Definition


Weather Definition


TIME
00:00 14.9 12.9 88 10 10   102.13     LegendNANA
01:00 14.8 12.7 87 10 8   102.11     LegendNANA
02:00 14.7 12.3 85 7 7   102.12     LegendNANA
03:00 14.7 13.2 91 7 16   102.11     LegendNANA
04:00 14.4 13.6 95 10 15   102.13     LegendNANA
05:00 14.3 13.6 96 11 15   102.13     LegendNANA
06:00 14.2 13.6 96 10 17   102.20     LegendNANA
07:00 14.3 13.6 96 9 17   102.26     LegendNANA
08:00 14.4 13.7 96 10 18   102.28     LegendNANA
09:00 14.6 13.9 96 9 16   102.33     LegendNANA
10:00 15.0 14.3 96 10 16   102.30     LegendNANA
11:00 16.3 14.8 91 11 13   102.28     LegendNANA
12:00 17.1 15.3 89 14 8   102.27     LegendNANA
13:00 18.9 16.2 84 18 14   102.25     LegendNANA
14:00 18.7 16.6 88 20 11   102.26     LegendNANA
15:00 19.2 17.0 87 11 2   102.25     LegendNANA
16:00 19.8 17.2 85 6 8   102.22     LegendNANA
17:00 19.2 16.9 86 7 10   102.23     LegendNANA
18:00 18.4 16.8 90 9 8   102.25     LegendNANA
19:00 17.6 16.2 92 8 7   102.27     LegendNANA
20:00 17.6 16.5 93 6 2   102.31     LegendNANA
21:00 18.6 17.2 92 18 8   102.33     LegendNANA
22:00 18.5 17.0 91 19 11   102.32     LegendNANA
23:00 18.4 17.0 91 19 12   102.33     LegendNANA

Notes on Data Quality.

Legend

  • E = Estimated
  • M = Missing
  • NA = Not Available
  • ‡ = Partner data that is not subject to review by the National Climate Archives
Date modified: